This is the latest recevied weather packets stored in our database for station/object LU3HGB-WX. If no packets are shown the sender has not sent any weather packets the latest 10 day(s).
| Time | Temp. | Humidity | Pressure | Rain* | Wind** | Luminosity | Snow |
|---|---|---|---|---|---|---|---|
| 1778020061 | 15.56° C | 85% | 1012 hPa | 0 mm | - | 0 W/m² | - |
| 1778019761 | 15.56° C | 84% | 1011 hPa | 0 mm | - | 0 W/m² | - |
| 1778019460 | 16.11° C | 83% | 1011 hPa | 0 mm | - | 0 W/m² | - |
| 1778019160 | 16.67° C | 83% | 1011 hPa | 0 mm | - | 0 W/m² | - |
| 1778018860 | 16.67° C | 82% | 1011 hPa | 0 mm | - | 0 W/m² | - |
| 1778018561 | 17.22° C | 78% | 1011 hPa | 0 mm | - | 0 W/m² | - |
| 1778018260 | 17.78° C | 78% | 1011 hPa | 0 mm | - | 0 W/m² | - |
| 1778017960 | 18.33° C | 76% | 1011 hPa | 0 mm | - | 1 W/m² | - |
| 1778017662 | 18.89° C | 75% | 1011 hPa | 0 mm | - | 2 W/m² | - |
| 1778017360 | 19.44° C | 73% | 1011 hPa | 0 mm | - | 3 W/m² | - |
| 1778017059 | 20° C | 70% | 1011 hPa | 0 mm | - | 7 W/m² | - |
| 1778016760 | 20° C | 69% | 1011 hPa | 0 mm | - | 12 W/m² | - |
| 1778016463 | 20.56° C | 67% | 1011 hPa | 0 mm | - | 17 W/m² | - |
| 1778016160 | 21.11° C | 65% | 1011 hPa | 0 mm | - | 21 W/m² | - |
| 1778015861 | 21.11° C | 63% | 1011 hPa | 0 mm | - | 24 W/m² | - |
| 1778015560 | 21.11° C | 63% | 1011 hPa | 0 mm | - | 27 W/m² | - |
| 1778014977 | 21.67° C | 62% | 1011 hPa | 0 mm | - | 32 W/m² | - |
| 1778014659 | 22.22° C | 60% | 1011 hPa | 0 mm | - | 35 W/m² | - |
| 1778014359 | 22.78° C | 58% | 1011 hPa | 0 mm | - | 37 W/m² | - |
| 1778014060 | 22.78° C | 57% | 1010 hPa | 0 mm | - | 51 W/m² | - |
| 1778013760 | 23.33° C | 56% | 1010 hPa | 0 mm | - | 117 W/m² | - |
| 1778013460 | 23.33° C | 54% | 1010 hPa | 0 mm | - | 133 W/m² | - |
| 1778013160 | 23.89° C | 54% | 1010 hPa | 0 mm | - | 152 W/m² | - |
| 1778012859 | 24.44° C | 52% | 1011 hPa | 0 mm | - | 165 W/m² | - |
| 1778012559 | 24.44° C | 51% | 1011 hPa | 0 mm | - | 181 W/m² | - |
* Rain latest hour (hover to see other rain measurements)
** Current wind speed in m/s (hover to see current wind gust speed)